Mitchell, SD

12:47 AM CDT on October 23, 2019 (GMT -0500)
Mitchell Municipal

Weather History for KMHE - August, 2019

Change the Weather History Date:

Friday, August 30, 2019

  Actual Average Record
Temperature  
Mean Temperature 60 °F 69 °F  
Max Temperature 68 °F 81 °F 103 °F (1898)
Min Temperature 51 °F 57 °F 40 °F (1946)
Degree Days  
Heating Degree Days 5 1  
Month to date heating degree days 5 5  
Since 1 June heating degree days 21 45  
Since 1 July heating degree days 5 10  
Cooling Degree Days 0 5  
Month to date cooling degree days 214 223  
Year to date cooling degree days 794 741  
Since 1 June cooling degree days 775 701  
Growing Degree Days 8 (Base 50)    
Moisture  
Dew Point 55 °F    
Average Humidity 76    
Maximum Humidity 93    
Minimum Humidity 58    
Precipitation  
Precipitation 0.07 in 0.07 in 2.31 in (2010)
Month to date precipitation 3.56 2.31  
Year to date precipitation 24.48 16.28  
Snow  
Snow 0.00 in - 0.00 in ()
Month to date snowfall 0.0  
Since 1 June snowfall 0.0  
Since 1 July snowfall 0.0  
Snow Depth 0.00 in    
Sea Level Pressure  
Sea Level Pressure 30.19 in    
Wind  
Wind Speed 2 mph (SE)    
Max Wind Speed 8 mph    
Max Gust Speed 11 mph    
Visibility 10 miles    
Events Rain    
T = Trace of Precipitation, MM = Missing Value Source: NWS Daily Summary

Daily Weather History Graph

Daily Weather History Graph

Search for Another Location

Airport or City:

Astronomy

Aug. 30, 2019 Rise Set
Actual Time 6:53 AM CDT 8:11 PM CDT
Civil Twilight 6:23 AM CDT 8:41 PM CDT
Nautical Twilight 5:47 AM CDT 9:16 PM CDT
Astronomical Twilight 5:09 AM CDT 9:54 PM CDT
Moon 6:53 AM CDT (8/30) 8:49 PM CDT (8/30)
Length of Visible Light 14h 17m
Length of Day
13h 18m
New Moon, 0% of the Moon is Illuminated
Aug 30
New Moon
Sep 5
First Quarter
Sep 13
Full
Sep 21
Last Quarter
Sep 28
New

Hourly Weather History & Observations

Time (CDT) Temp. Dew Point Humidity Pressure Visibility Wind Dir Wind Speed Gust Speed Precip Events Conditions
12:53 AM 57.0 °F 52.0 °F 83% 30.09 in 10.0 mi North 6.9 mph - N/A   Clear
1:53 AM 57.0 °F 53.1 °F 87% 30.09 in 10.0 mi Calm Calm - N/A   Clear
2:53 AM 55.9 °F 52.0 °F 87% 30.11 in 10.0 mi North 4.6 mph - N/A   Clear
3:53 AM 54.0 °F 51.1 °F 90% 30.16 in 10.0 mi SSE 6.9 mph - N/A   Clear
4:53 AM 55.9 °F 52.0 °F 87% 30.18 in 10.0 mi SSW 4.6 mph - N/A   Clear
5:53 AM 55.0 °F 51.1 °F 86% 30.19 in 10.0 mi Calm Calm - N/A   Clear
6:53 AM 51.1 °F 48.9 °F 92% 30.19 in 10.0 mi NW 4.6 mph - N/A   Clear
7:53 AM 55.9 °F 52.0 °F 87% 30.22 in 10.0 mi Calm Calm - N/A   Clear
8:53 AM 60.1 °F 55.0 °F 83% 30.21 in 10.0 mi Calm Calm - N/A   Clear
9:53 AM 63.0 °F 54.0 °F 72% 30.21 in 10.0 mi Calm Calm - N/A   Clear
10:53 AM 63.0 °F 55.9 °F 78% 30.21 in 10.0 mi NNE 5.8 mph - N/A   Clear
11:53 AM 66.9 °F 55.0 °F 66% 30.25 in 10.0 mi South 3.5 mph - N/A   Clear
12:53 PM 66.9 °F 52.0 °F 59% 30.23 in 10.0 mi Calm Calm - N/A   Scattered Clouds
1:53 PM 66.9 °F 52.0 °F 59% 30.23 in 10.0 mi Calm Calm - 0.00 in   Mostly Cloudy
2:53 PM 64.9 °F 57.0 °F 75% 30.20 in 10.0 mi Calm Calm - 0.01 in Rain Light Rain
3:53 PM 66.0 °F 57.0 °F 73% 30.20 in 10.0 mi South 5.8 mph - 0.01 in   Overcast
4:53 PM 66.0 °F 55.9 °F 70% 30.18 in 10.0 mi ESE 3.5 mph - 0.01 in Rain Light Rain
5:53 PM 66.0 °F 57.0 °F 73% 30.18 in 10.0 mi Calm Calm - 0.00 in Rain Light Rain
6:53 PM 64.0 °F 57.9 °F 80% 30.18 in 10.0 mi Calm Calm - 0.01 in Rain Light Rain
7:53 PM 62.1 °F 57.9 °F 86% 30.19 in 9.0 mi SSW 3.5 mph - 0.02 in Rain Light Rain
8:53 PM 62.1 °F 57.9 °F 86% 30.21 in 10.0 mi Calm Calm - 0.01 in   Mostly Cloudy
9:53 PM 62.1 °F 57.9 °F 86% 30.23 in 10.0 mi ESE 3.5 mph - N/A   Overcast
10:53 PM 62.1 °F 57.0 °F 84% 30.24 in 10.0 mi Calm Calm - N/A   Overcast
11:53 PM 61.0 °F 57.0 °F 87% 30.22 in 10.0 mi ESE 5.8 mph - N/A   Overcast